Bowling Green, KY

2:41 AM CDT on June 20, 2019 (GMT -0500)
Bowling Green-Warren County Regional

Weather History for KBWG - May, 2019

Change the Weather History Date:

Saturday, May 18, 2019

  Actual Average Record
Temperature  
Mean Temperature 76 °F 67 °F  
Max Temperature 89 °F 78 °F 96 °F (1911)
Min Temperature 62 °F 56 °F 39 °F (1894)
Degree Days  
Heating Degree Days 0 2  
Month to date heating degree days 36 57  
Since 1 July heating degree days 3752 4026  
Cooling Degree Days 11 4  
Month to date cooling degree days 66 49  
Year to date cooling degree days 100 85  
Growing Degree Days 26 (Base 50)    
Moisture  
Dew Point 63 °F    
Average Humidity 67    
Maximum Humidity 93    
Minimum Humidity 40    
Precipitation  
Precipitation 0.00 in 0.17 in 3.14 in (1995)
Month to date precipitation 1.90 3.35  
Year to date precipitation 23.72 19.67  
Snow  
Snow 0.00 in 0.00 in 0.00 in ()
Month to date snowfall 0.0 0.0  
Since 1 July snowfall 5.1 9.1  
Snow Depth 0.00 in    
Sea Level Pressure  
Sea Level Pressure 29.92 in    
Wind  
Wind Speed 7 mph (South)    
Max Wind Speed 21 mph    
Max Gust Speed 27 mph    
Visibility 10 miles    
Events      
T = Trace of Precipitation, MM = Missing Value Source: NWS Daily Summary

Daily Weather History Graph

Daily Weather History Graph

Search for Another Location

Airport or City:

Astronomy

May. 18, 2019 Rise Set
Actual Time 5:35 AM CDT 7:49 PM CDT
Civil Twilight 5:06 AM CDT 8:18 PM CDT
Nautical Twilight 4:30 AM CDT 8:54 PM CDT
Astronomical Twilight 3:51 AM CDT 9:33 PM CDT
Moon 7:45 PM CDT (5/18) 5:39 AM CDT (5/18)
Length of Visible Light 15h 12m
Length of Day
14h 13m
Full, 100% of the Moon is Illuminated
May 18
Full
May 18
Full
May 26
Last Quarter
Jun 3
New
Jun 10
First Quarter

Hourly Weather History & Observations

Time (CDT) Temp. Heat Index Dew Point Humidity Pressure Visibility Wind Dir Wind Speed Gust Speed Precip Events Conditions
12:53 AM 68.0 °F - 61.0 °F 78% 29.94 in 10.0 mi Calm Calm - N/A   Clear
1:53 AM 70.0 °F - 61.0 °F 73% 29.92 in 10.0 mi Calm Calm - N/A   Clear
2:53 AM 64.9 °F - 61.0 °F 87% 29.93 in 10.0 mi Calm Calm - N/A   Clear
3:53 AM 64.0 °F - 60.1 °F 87% 29.94 in 8.0 mi Calm Calm - N/A   Clear
4:53 AM 64.0 °F - 60.1 °F 87% 29.95 in 8.0 mi Calm Calm - N/A   Clear
5:53 AM 63.0 °F - 60.1 °F 90% 29.96 in 4.0 mi Calm Calm - N/A   Clear
6:53 AM 68.0 °F - 62.1 °F 81% 29.97 in 7.0 mi Calm Calm - N/A   Clear
7:53 AM 75.0 °F - 64.0 °F 69% 29.98 in 10.0 mi South 5.8 mph - N/A   Clear
8:53 AM 79.0 °F - 64.9 °F 62% 29.98 in 10.0 mi SSW 8.1 mph - N/A   Clear
9:53 AM 82.9 °F 84.6 °F 64.9 °F 54% 29.98 in 10.0 mi SW 10.4 mph - N/A   Clear
10:53 AM 84.9 °F 86.1 °F 64.0 °F 49% 29.96 in 10.0 mi SW 10.4 mph 18.4 mph N/A   Clear
11:53 AM 86.0 °F 87.6 °F 64.9 °F 49% 29.94 in 10.0 mi SSW 11.5 mph - N/A   Scattered Clouds
12:53 PM 88.0 °F 89.3 °F 64.0 °F 45% 29.93 in 10.0 mi SSW 12.7 mph - N/A   Clear
1:53 PM 87.1 °F 88.3 °F 64.0 °F 46% 29.91 in 10.0 mi South 15.0 mph 23.0 mph N/A   Partly Cloudy
2:53 PM 87.1 °F 87.0 °F 61.0 °F 41% 29.89 in 10.0 mi South 16.1 mph 26.5 mph N/A   Clear
3:53 PM 88.0 °F 88.4 °F 62.1 °F 42% 29.88 in 10.0 mi SSW 15.0 mph - N/A   Partly Cloudy
4:53 PM 88.0 °F 88.4 °F 62.1 °F 42% 29.88 in 10.0 mi SW 11.5 mph - N/A   Clear
5:53 PM 87.1 °F 87.5 °F 62.1 °F 43% 29.86 in 10.0 mi South 11.5 mph - N/A   Scattered Clouds
6:53 PM 84.9 °F 85.4 °F 62.1 °F 46% 29.86 in 10.0 mi South 11.5 mph - N/A   Clear
7:53 PM 81.0 °F 82.2 °F 63.0 °F 54% 29.86 in 10.0 mi SSE 5.8 mph - N/A   Clear
8:53 PM 79.0 °F - 63.0 °F 58% 29.86 in 10.0 mi SSE 5.8 mph - N/A   Clear
9:53 PM 77.0 °F - 63.0 °F 62% 29.87 in 10.0 mi SSE 5.8 mph - N/A   Clear
10:53 PM 75.9 °F - 63.0 °F 64% 29.88 in 10.0 mi South 6.9 mph - N/A   Clear
11:53 PM 73.9 °F - 63.0 °F 68% 29.86 in 10.0 mi SSE 6.9 mph - N/A   Clear